This is the latest recevied weather packets stored in our database for station/object KB1JL-13. If no packets are shown the sender has not sent any weather packets the latest 10 day(s).
| Time | Temp. | Humidity | Pressure | Rain* | Wind** | Luminosity | Snow |
|---|---|---|---|---|---|---|---|
| 1778089515 | 13.89° C | 99% | 1019.9 hPa | 1.78 mm | - | 126 W/m² | - |
| 1778089210 | 13.89° C | 99% | 1020.2 hPa | 1.78 mm | - | 120 W/m² | - |
| 1778088909 | 14.44° C | 98% | 1020.5 hPa | 1.27 mm | - | 107 W/m² | - |
| 1778088605 | 14.44° C | 98% | 1020.5 hPa | 1.27 mm | - | 101 W/m² | - |
| 1778088303 | 14.44° C | 98% | 1020.5 hPa | 1.78 mm | - | 94 W/m² | - |
| 1778087998 | 14.44° C | 98% | 1020.9 hPa | 1.78 mm | - | 77 W/m² | - |
| 1778087696 | 14.44° C | 97% | 1020.9 hPa | 1.27 mm | - | 75 W/m² | - |
| 1778087394 | 14.44° C | 96% | 1020.9 hPa | 1.27 mm | - | 52 W/m² | - |
| 1778087090 | 14.44° C | 96% | 1021.2 hPa | 0 mm | - | 33 W/m² | - |
| 1778086789 | 14.44° C | 95% | 1020.9 hPa | 1.78 mm | - | 26 W/m² | - |
| 1778086487 | 15° C | 94% | 1020.9 hPa | 1.78 mm | - | 34 W/m² | - |
| 1778086183 | 15° C | 93% | 1021.2 hPa | 0 mm | - | 42 W/m² | - |
| 1778085880 | 15° C | 92% | 1021.6 hPa | 0 mm | - | 55 W/m² | - |
| 1778085577 | 15.56° C | 91% | 1021.2 hPa | 0 mm | - | 68 W/m² | - |
| 1778085272 | 15.56° C | 89% | 1020.9 hPa | 0 mm | - | 71 W/m² | - |
| 1778084967 | 15.56° C | 88% | 1021.2 hPa | 0 mm | - | 78 W/m² | - |
| 1778084665 | 16.11° C | 87% | 1021.2 hPa | 0 mm | - | 95 W/m² | - |
| 1778084362 | 16.11° C | 87% | 1021.6 hPa | 0 mm | - | 97 W/m² | - |
| 1778084060 | 16.11° C | 86% | 1021.2 hPa | 0 mm | - | 117 W/m² | - |
| 1778083752 | 16.67° C | 85% | 1021.2 hPa | 0 mm | - | 214 W/m² | - |
| 1778083449 | 16.67° C | 85% | 1021.6 hPa | 0 mm | - | 196 W/m² | - |
| 1778083147 | 16.67° C | 85% | 1021.6 hPa | 0 mm | - | 163 W/m² | - |
| 1778082843 | 16.67° C | 85% | 1021.6 hPa | 0 mm | - | 172 W/m² | - |
| 1778081726 | 16.67° C | 86% | 1021.9 hPa | 0 mm | - | 210 W/m² | - |
| 1778081423 | 16.67° C | 85% | 1021.6 hPa | 0 mm | - | 173 W/m² | - |
* Rain latest hour (hover to see other rain measurements)
** Current wind speed in m/s (hover to see current wind gust speed)